Location: Six Mile Lake
(44.9000°N, 79.7170°W)
Time: 09:47:57
(UTC-04:00)

ZACube-1 - Visible Passes

Search period start: 02 July 2022 00:00
Search period end: 12 July 2022 00:00
Orbit: 581 x 662 km, 97.6° (Epoch: 01 July)

Date Brightness Start Highest point End Pass type
(mag) Time Alt. Az. Time Alt. Az. Time Alt. Az.
02 Jul ? 04:59:39 10° NNE 05:04:04 55° E 05:08:30 10° S visible
04 Jul ? 04:00:43 10° ENE 04:03:08 14° E 04:05:33 10° ESE visible
05 Jul ? 04:17:40 10° NE 04:21:07 21° E 04:24:35 10° SE visible
06 Jul ? 04:35:01 10° NNE 04:39:03 31° E 04:43:07 10° SSE visible
07 Jul ? 04:52:34 10° NNE 04:56:57 48° E 05:01:21 10° S visible
09 Jul ? 03:54:05 10° ENE 03:55:56 12° E 03:57:48 10° ESE visible
10 Jul ? 04:10:45 10° NE 04:13:57 19° E 04:17:08 10° SE visible
11 Jul ? 04:27:59 10° NE 04:31:54 27° E 04:35:47 10° SSE visible
